TimeCDT,TemperatureF,Dew PointF,Humidity,Sea Level PressureIn,VisibilityMPH,Wind Direction,Wind SpeedMPH,Gust SpeedMPH,PrecipitationIn,Events,Conditions,WindDirDegrees,DateUTC
12:13 AM,41.0,35.1,79,29.73,10.0,SW,3.5,-,N/A,,Scattered Clouds,230,2012-10-09 05:13:00
12:33 AM,40.5,34.7,80,29.73,10.0,Calm,Calm,-,N/A,,Mostly Cloudy,0,2012-10-09 05:33:00
12:54 AM,41.5,35.2,78,29.73,10.0,Calm,Calm,-,N/A,,Scattered Clouds,0,2012-10-09 05:54:00
1:13 AM,40.5,34.5,79,29.73,10.0,Calm,Calm,-,N/A,,Clear,0,2012-10-09 06:13:00
1:54 AM,39.9,34.0,79,29.74,10.0,West,4.6,-,N/A,,Clear,270,2012-10-09 06:54:00
2:14 AM,39.6,33.4,79,29.74,10.0,WSW,4.6,-,N/A,,Scattered Clouds,250,2012-10-09 07:14:00
2:53 AM,39.9,34.2,80,29.74,10.0,WSW,5.8,-,N/A,,Overcast,250,2012-10-09 07:53:00
3:14 AM,41.0,34.5,78,29.73,10.0,West,4.6,-,N/A,,Overcast,260,2012-10-09 08:14:00
3:33 AM,41.0,34.3,77,29.72,10.0,West,4.6,-,N/A,,Overcast,260,2012-10-09 08:33:00
3:53 AM,41.0,34.3,77,29.72,10.0,West,5.8,-,N/A,,Overcast,260,2012-10-09 08:53:00
4:14 AM,41.5,34.2,75,29.73,10.0,West,4.6,-,N/A,,Overcast,260,2012-10-09 09:14:00
4:33 AM,41.4,34.0,75,29.73,10.0,West,3.5,-,N/A,,Overcast,260,2012-10-09 09:33:00
4:53 AM,41.2,33.8,75,29.74,10.0,West,4.6,-,N/A,,Overcast,260,2012-10-09 09:53:00
5:14 AM,41.5,33.4,73,29.74,10.0,WSW,5.8,-,N/A,,Overcast,250,2012-10-09 10:14:00
5:33 AM,42.1,32.9,70,29.75,10.0,West,8.1,-,N/A,,Overcast,260,2012-10-09 10:33:00
5:53 AM,42.8,32.2,66,29.76,10.0,West,5.8,-,N/A,,Overcast,260,2012-10-09 10:53:00
6:14 AM,42.1,32.0,67,29.76,10.0,West,6.9,-,N/A,,Overcast,260,2012-10-09 11:14:00
6:34 AM,41.9,32.0,68,29.77,10.0,West,8.1,-,N/A,,Overcast,260,2012-10-09 11:34:00
6:53 AM,42.4,30.7,63,29.77,10.0,West,9.2,-,N/A,,Overcast,270,2012-10-09 11:53:00
7:13 AM,42.4,29.1,59,29.77,10.0,West,10.4,17.3,N/A,,Mostly Cloudy,260,2012-10-09 12:13:00
7:34 AM,42.1,29.1,60,29.77,10.0,West,9.2,-,N/A,,Mostly Cloudy,260,2012-10-09 12:34:00
7:53 AM,42.8,28.9,58,29.77,10.0,West,9.2,-,N/A,,Overcast,260,2012-10-09 12:53:00
8:13 AM,42.8,27.9,56,29.77,10.0,West,12.7,-,N/A,,Mostly Cloudy,270,2012-10-09 13:13:00
8:34 AM,42.8,27.3,54,29.77,10.0,West,11.5,-,N/A,,Mostly Cloudy,280,2012-10-09 13:34:00
8:53 AM,42.3,27.0,55,29.78,10.0,West,10.4,24.2,N/A,,Scattered Clouds,280,2012-10-09 13:53:00
9:14 AM,42.6,26.8,54,29.78,10.0,West,13.8,18.4,N/A,,Clear,270,2012-10-09 14:14:00
9:34 AM,42.3,26.6,54,29.79,10.0,West,15.0,19.6,N/A,,Clear,270,2012-10-09 14:34:00
9:53 AM,44.1,26.6,50,29.78,10.0,West,16.1,-,N/A,,Clear,260,2012-10-09 14:53:00
10:14 AM,45.5,26.2,47,29.79,10.0,West,19.6,28.8,N/A,,Scattered Clouds,260,2012-10-09 15:14:00
10:33 AM,44.8,25.5,47,29.79,10.0,West,21.9,29.9,N/A,,Scattered Clouds,260,2012-10-09 15:33:00
10:53 AM,45.0,25.5,47,29.79,10.0,West,23.0,31.1,N/A,,Mostly Cloudy,270,2012-10-09 15:53:00
11:14 AM,44.6,25.9,48,29.79,10.0,West,19.6,29.9,N/A,,Overcast,280,2012-10-09 16:14:00
11:54 AM,44.4,26.6,50,29.80,10.0,West,21.9,27.6,N/A,,Overcast,280,2012-10-09 16:54:00
12:13 PM,43.7,26.6,51,29.80,10.0,West,17.3,25.3,N/A,,Overcast,280,2012-10-09 17:13:00
12:33 PM,43.9,27.0,51,29.81,10.0,West,21.9,28.8,N/A,,Overcast,280,2012-10-09 17:33:00
12:54 PM,43.9,28.0,54,29.81,10.0,West,18.4,24.2,N/A,,Overcast,280,2012-10-09 17:54:00
1:13 PM,44.1,28.4,54,29.81,10.0,West,18.4,25.3,N/A,,Overcast,270,2012-10-09 18:13:00
1:34 PM,44.1,28.4,54,29.81,10.0,West,23.0,27.6,N/A,,Overcast,270,2012-10-09 18:34:00
1:54 PM,44.2,29.1,55,29.82,10.0,West,18.4,24.2,N/A,,Overcast,280,2012-10-09 18:54:00
2:13 PM,43.2,30.9,62,29.82,10.0,WNW,21.9,31.1,N/A,,Overcast,290,2012-10-09 19:13:00
2:34 PM,42.3,28.9,59,29.83,10.0,NW,17.3,29.9,N/A,,Overcast,310,2012-10-09 19:34:00
2:54 PM,43.2,29.3,58,29.84,10.0,WNW,16.1,27.6,N/A,,Overcast,290,2012-10-09 19:54:00
3:14 PM,42.3,29.8,61,29.85,10.0,WNW,19.6,31.1,N/A,,Overcast,300,2012-10-09 20:14:00
3:33 PM,41.9,28.8,60,29.86,10.0,NW,20.7,32.2,N/A,,Overcast,320,2012-10-09 20:33:00
3:54 PM,41.9,28.0,58,29.87,10.0,WNW,19.6,25.3,N/A,,Overcast,300,2012-10-09 20:54:00
4:14 PM,41.9,27.5,57,29.88,10.0,WNW,16.1,27.6,N/A,,Overcast,290,2012-10-09 21:14:00
4:33 PM,42.4,26.4,53,29.89,10.0,NW,13.8,28.8,N/A,,Mostly Cloudy,310,2012-10-09 21:33:00
4:53 PM,41.9,24.8,51,29.90,10.0,NW,17.3,25.3,N/A,,Overcast,310,2012-10-09 21:53:00
5:13 PM,41.4,26.1,55,29.91,10.0,WNW,15.0,23.0,N/A,,Overcast,290,2012-10-09 22:13:00
5:34 PM,41.4,26.1,55,29.91,10.0,WNW,11.5,23.0,N/A,,Overcast,290,2012-10-09 22:34:00
5:53 PM,40.8,27.5,59,29.92,10.0,WNW,13.8,24.2,N/A,,Overcast,300,2012-10-09 22:53:00
6:13 PM,40.1,27.1,60,29.93,10.0,WNW,11.5,19.6,N/A,,Overcast,300,2012-10-09 23:13:00
6:34 PM,39.7,27.1,61,29.94,10.0,WNW,18.4,24.2,N/A,,Overcast,290,2012-10-09 23:34:00
6:53 PM,39.6,24.8,56,29.95,10.0,NW,13.8,21.9,N/A,,Overcast,310,2012-10-09 23:53:00
7:13 PM,39.2,25.3,58,29.95,10.0,WNW,10.4,18.4,N/A,,Overcast,290,2012-10-10 00:13:00
7:34 PM,39.2,24.8,56,29.96,10.0,WNW,11.5,16.1,N/A,,Overcast,300,2012-10-10 00:34:00
7:53 PM,38.5,23.9,56,29.97,10.0,WNW,8.1,-,N/A,,Overcast,290,2012-10-10 00:53:00
8:13 PM,37.4,23.5,57,29.97,10.0,West,6.9,-,N/A,,Mostly Cloudy,280,2012-10-10 01:13:00
8:34 PM,36.7,23.0,58,29.97,10.0,West,5.8,-,N/A,,Mostly Cloudy,280,2012-10-10 01:34:00
8:54 PM,35.1,22.1,59,29.98,10.0,West,8.1,-,N/A,,Scattered Clouds,270,2012-10-10 01:54:00
9:13 PM,33.1,21.7,63,29.99,10.0,West,6.9,-,N/A,,Clear,270,2012-10-10 02:13:00
9:33 PM,31.1,21.0,66,29.99,10.0,West,6.9,-,N/A,,Clear,270,2012-10-10 02:33:00
9:53 PM,29.5,20.3,69,30.00,10.0,West,5.8,-,N/A,,Clear,270,2012-10-10 02:53:00
10:13 PM,27.1,19.9,74,30.00,10.0,West,5.8,-,N/A,,Clear,270,2012-10-10 03:13:00
10:33 PM,25.5,19.2,77,30.01,10.0,West,4.6,-,N/A,,Clear,270,2012-10-10 03:33:00
10:53 PM,26.4,19.8,76,30.01,10.0,West,6.9,-,N/A,,Clear,260,2012-10-10 03:53:00
11:14 PM,26.1,20.3,79,30.01,10.0,West,5.8,-,N/A,,Clear,280,2012-10-10 04:14:00
11:33 PM,28.0,21.0,75,30.01,10.0,West,4.6,-,N/A,,Scattered Clouds,280,2012-10-10 04:33:00
11:53 PM,28.8,21.0,73,30.00,10.0,WNW,3.5,-,N/A,,Scattered Clouds,290,2012-10-10 04:53:00